Location: Houston
(29.7630°N, 95.3630°W)
Time: 13:49:14
(UTC-05:00)

Amateur Radio Satellites - All Passes

Search period start: 01 July 2016 13:19
Search period end: 02 July 2016 13:19
Location: Houston, 29.7630°N, 95.3630°W

Satellite Date Start Highest point End Downlink Frequencies (MHz)
Time Altitude Azimuth
JUGNU 01 Jul 13:20:05 13:24:08 19° 165° (SSE) 13:28:11 437.505
Gurwin Techsat 1B 01 Jul 13:23:17 13:24:27 11° 65° (ENE) 13:25:36 435.225
PCSat 01 Jul 13:28:10 13:30:28 13° 257° (WSW) 13:32:47 145.827
YUBILEINY 01 Jul 13:31:25 13:40:06 76° 276° (W) 13:48:53 435.215
CUBEBUG 1 01 Jul 13:44:39 13:48:15 26° 288° (WNW) 13:51:51 437.445
TISAT 1 01 Jul 13:52:41 13:56:16 27° 98° (E) 13:59:51 437.305
Cosmos 2491 01 Jul 13:57:05 14:03:57 27° 275° (W) 14:10:50 435.465 / 435.565
50 SAT 01 Jul 13:58:11 13:59:57 13° 290° (WNW) 14:01:42 437.505
VELOX 1 01 Jul 14:01:43 14:04:51 19° 290° (WNW) 14:08:00 145.980
O/OREOS (USA 219) 01 Jul 14:02:12 14:05:35 21° 259° (WSW) 14:08:58 437.305
AIST 2 01 Jul 14:07:43 14:11:49 55° 62° (ENE) 14:15:52 435.215
Oscar 19 01 Jul 14:15:26 14:20:35 79° 258° (WSW) 14:25:44 437.125/150
SPROUT 01 Jul 14:20:02 14:23:37 26° 288° (WNW) 14:27:12 437.525
UKube-1 01 Jul 14:25:33 14:28:18 17° 291° (WNW) 14:31:03 .
SO-50 01 Jul 14:27:59 14:31:48 23° 110° (ESE) 14:35:36 436.795
JAS-2 01 Jul 14:31:49 14:38:02 27° 263° (W) 14:43:56 435.910
Cosmos 2504 01 Jul 14:32:13 14:40:14 85° 94° (E) 14:48:54 435.465 / 435.565
AO-7 01 Jul 14:32:50 14:37:11 15° 57° (ENE) 14:41:31 29.400- 29.500
ISS 01 Jul 14:37:23 14:39:11 14° 36° (NE) 14:40:58 145.825
BEESAT 01 Jul 14:41:12 14:44:12 16° 95° (E) 14:47:12 436.000
SRMSAT 01 Jul 14:42:12 14:44:46 13° 161° (SSE) 14:47:21 437.500
ITUPSAT 1 01 Jul 14:44:18 14:47:29 18° 95° (E) 14:50:39 437.325
ITAMSAT 1 01 Jul 14:46:03 14:50:20 27° 70° (ENE) 14:54:39 435.822/435.867
Gurwin Techsat 1B 01 Jul 14:58:25 15:03:42 72° 258° (WSW) 15:09:01 435.225
JUGNU 01 Jul 15:07:32 15:12:39 30° 174° (S) 15:17:46 437.505
TISAT 1 01 Jul 15:28:51 15:31:40 18° 290° (WNW) 15:34:31 437.305
YUBILEINY 01 Jul 15:37:49 15:38:12 10° 293° (WNW) 15:38:36 435.215
RS-15 01 Jul 15:39:57 15:42:10 11° 337° (NNW) 15:44:23 29.354- 29.394
SWISSCUBE 01 Jul 15:52:28 15:57:12 64° 285° (WNW) 16:01:54 437.505
SO-50 01 Jul 16:07:44 16:12:04 31° 303° (WNW) 16:16:25 436.795
ISS 01 Jul 16:12:39 16:15:45 42° 230° (SW) 16:18:51 145.825
KKS-1 01 Jul 16:13:30 16:16:28 17° 96° (E) 16:19:26 437.445
BEESAT 01 Jul 16:17:39 16:22:02 37° 288° (WNW) 16:26:23 436.000
AO-7 01 Jul 16:20:26 16:28:46 88° 71° (ENE) 16:37:10 29.400- 29.500
ITUPSAT 1 01 Jul 16:21:00 16:25:20 35° 288° (WNW) 16:29:38 437.325
ITAMSAT 1 01 Jul 16:25:15 16:29:38 28° 262° (W) 16:34:04 435.822/435.867
MOZHAYETS 4 01 Jul 16:27:23 16:31:10 25° 97° (E) 16:34:54
SRMSAT 01 Jul 16:28:37 16:33:25 25° 169° (S) 16:38:11 437.500
Cosmos 2504 01 Jul 16:30:26 16:34:38 15° 292° (WNW) 16:39:00 435.465 / 435.565
HORYU 2 01 Jul 16:31:40 16:34:03 14° 68° (ENE) 16:36:25 437.375
STARS 01 Jul 16:36:49 16:39:23 15° 95° (E) 16:41:56 437.465
JUGNU 01 Jul 16:56:02 17:01:14 31° 184° (S) 17:06:27 437.505
AIST 1 01 Jul 17:12:19 17:16:37 69° 95° (E) 17:20:54
GONETS M04 01 Jul 17:36:02 17:42:27 24° 84° (E) 17:48:52
NOAA 18 01 Jul 17:41:09 17:44:06 15° 65° (ENE) 17:47:02 137.9125
KKS-1 01 Jul 17:49:06 17:53:00 30° 288° (WNW) 17:56:53 437.445
CUTE-I 01 Jul 17:51:52 17:55:10 17° 67° (ENE) 17:58:27 437.470
CUBESAT XI-V 01 Jul 18:03:54 18:07:58 31° 98° (E) 18:12:01 437.345
MOZHAYETS 4 01 Jul 18:04:31 18:08:09 23° 289° (WNW) 18:11:46
HORYU 2 01 Jul 18:06:08 18:10:13 38° 261° (W) 18:14:21 437.375
NOAA 15 01 Jul 18:07:11 18:11:56 34° 71° (ENE) 18:16:40 137.62
BRITE-PL 01 Jul 18:11:14 18:15:49 35° 74° (ENE) 18:20:04 437.365/2234.400
STARS 01 Jul 18:11:47 18:15:45 34° 287° (WNW) 18:19:44 437.465
SRMSAT 01 Jul 18:16:53 18:22:08 32° 179° (S) 18:27:21 437.500
AO-7 01 Jul 18:18:28 18:22:12 14° 266° (W) 18:25:58 29.400- 29.500
GOMX 1 01 Jul 18:28:28 18:31:51 21° 72° (ENE) 18:35:06 467.674
JUGNU 01 Jul 18:45:22 18:49:47 21° 194° (SSW) 18:54:12 437.505
Cubesat XI-IV 01 Jul 18:56:09 19:01:29 77° 75° (ENE) 19:06:51 437.490
Cosmos 2499 01 Jul 18:58:13 19:06:16 61° 91° (E) 19:14:50 435.465 / 435.565
DANDE 01 Jul 19:04:38 19:07:32 19° 71° (ENE) 19:09:58 436.750
LilacSat-2 01 Jul 19:05:10 19:08:55 79° 257° (WSW) 19:12:43 437.200
DOVE 4 01 Jul 19:11:00 19:14:33 25° 73° (ENE) 19:18:01 437.250
NOAA 18 01 Jul 19:18:52 19:24:12 56° 259° (WSW) 19:29:35 137.9125
CUTE-I 01 Jul 19:29:38 19:34:45 47° 260° (W) 19:39:55 437.470
GONETS M04 01 Jul 19:30:05 19:38:34 57° 279° (W) 19:47:05
CANX-2 01 Jul 19:37:17 19:39:13 13° 69° (ENE) 19:41:11 2200.000
CUBESAT XI-V 01 Jul 19:41:56 19:45:04 19° 290° (WNW) 19:48:13 437.345
CINEMA 3 01 Jul 19:42:28 19:44:40 14° 70° (ENE) 19:46:53 145.822/145.860
NOAA 15 01 Jul 19:47:42 19:51:41 22° 264° (W) 19:55:40 137.62
HO-68 01 Jul 19:49:29 19:55:41 33° 67° (ENE) 20:01:55 435.675
BRITE-PL 01 Jul 19:50:47 19:54:13 18° 263° (W) 19:57:31 437.365/2234.400
CUSAT 1 01 Jul 19:52:24 19:53:47 13° 271° (W) 19:55:05 437.405
SEEDS 01 Jul 19:54:20 19:56:03 12° 69° (ENE) 19:57:45 437.485
CUTE 1.7 + AOD 2 01 Jul 19:55:25 19:58:25 19° 71° (ENE) 20:01:26 437.475
AO-85 01 Jul 19:58:54 20:03:04 23° 109° (ESE) 20:07:12 145.980
GOMX 1 01 Jul 20:05:55 20:09:46 26° 262° (W) 20:13:27 467.674
SRMSAT 01 Jul 20:05:57 20:10:52 27° 189° (S) 20:15:46 437.500
RS-15 01 Jul 20:10:52 20:21:52 35° 50° (NE) 20:32:39 29.354- 29.394
AAUSAT CUBESAT 2 01 Jul 20:22:41 20:24:57 14° 70° (ENE) 20:27:15 437.432
STRAND 1 01 Jul 20:48:33 20:53:41 71° 285° (WNW) 20:58:46 437.568
DANDE 01 Jul 20:48:58 20:49:51 11° 277° (W) 20:50:42 436.750
DOVE 4 01 Jul 20:49:13 20:52:11 18° 264° (W) 20:55:05 437.250
CUBEBUG 2 01 Jul 20:50:59 20:54:27 26° 72° (ENE) 20:58:01 437.445
Cosmos 2499 01 Jul 20:53:40 20:59:52 23° 288° (WNW) 21:06:23 435.465 / 435.565
COMPASS 1 01 Jul 20:58:18 21:02:23 54° 76° (ENE) 21:06:31 437.405
ZACube-1 01 Jul 21:02:44 21:05:10 15° 69° (ENE) 21:07:37 437.345
Oscar 11 01 Jul 21:05:03 21:08:01 18° 71° (ENE) 21:11:00 145.826/435.025
PRISM 01 Jul 21:08:59 21:12:10 22° 97° (E) 21:15:19 437.425
CANX-2 01 Jul 21:10:41 21:14:41 39° 261° (W) 21:18:43 2200.000
AUBIESAT-1 01 Jul 21:13:29 21:16:16 26° 69° (ENE) 21:19:05 437.475
FUNcube-1 01 Jul 21:17:25 21:20:37 21° 71° (ENE) 21:23:53 145.935
CINEMA 3 01 Jul 21:17:49 21:21:30 31° 262° (W) 21:25:12 145.822/145.860
SEEDS 01 Jul 21:27:20 21:31:19 40° 261° (W) 21:35:21 437.485
UWE-3 01 Jul 21:30:05 21:34:08 54° 76° (ENE) 21:38:19 435.000/436.395/437.385
CUTE 1.7 + AOD 2 01 Jul 21:30:27 21:34:01 26° 263° (W) 21:37:38 437.475
HO-68 01 Jul 21:36:43 21:43:11 37° 261° (W) 21:49:43 435.675
AO-85 01 Jul 21:38:17 21:43:19 38° 301° (WNW) 21:48:17 145.980
DELFI C3 01 Jul 21:38:57 21:41:43 18° 71° (ENE) 21:44:30 145.870
M-CUBED/EXP-1 PRIME 01 Jul 21:55:40 21:58:48 44° 256° (WSW) 22:01:56 437.505
SRMSAT 01 Jul 21:56:14 21:59:29 15° 198° (SSW) 22:02:44 437.500
AAUSAT CUBESAT 2 01 Jul 21:56:20 22:00:06 33° 262° (W) 22:03:54 437.432
RS-15 01 Jul 22:22:51 22:34:56 63° 249° (WSW) 22:46:45 29.354- 29.394
CUBEBUG 2 01 Jul 22:28:19 22:31:03 17° 265° (W) 22:33:49 437.445
ZACube-1 01 Jul 22:37:23 22:41:07 31° 262° (W) 22:44:57 437.345
Oscar 11 01 Jul 22:40:12 22:43:54 28° 263° (W) 22:47:38 145.826/435.025
PRISM 01 Jul 22:44:20 22:47:17 20° 289° (WNW) 22:50:15 437.425
FUNcube-1 01 Jul 22:53:28 22:56:42 22° 264° (W) 23:00:01 145.935
TIGRISAT 01 Jul 22:56:28 23:00:19 25° 97° (E) 23:04:10 435.000
UNISAT 6 01 Jul 23:02:35 23:06:45 31° 98° (E) 23:10:55 437.425
DELFI C3 01 Jul 23:13:06 23:16:21 24° 263° (W) 23:19:38 145.870
HUMSAT D 01 Jul 23:18:00 23:22:02 52° 260° (W) 23:26:10 437.325/437.525
VELOX 1 01 Jul 23:18:25 23:20:02 12° 68° (ENE) 23:21:40 145.980
UKube-1 01 Jul 23:39:21 23:41:08 12° 68° (ENE) 23:42:54 .
ANTELSAT 01 Jul 23:41:48 23:46:30 87° 284° (WNW) 23:51:13 437.575/2403.000
YUBILEINY 01 Jul 23:49:27 23:57:40 41° 78° (ENE) 00:05:50 435.215
AISAT 01 Jul 23:57:00 00:01:03 38° 74° (ENE) 00:05:07 437.250
DX 1 02 Jul 00:03:59 00:07:51 32° 73° (ENE) 00:11:44 434.975-435.025
NANOSAT C BR1 02 Jul 00:04:19 00:07:30 20° 96° (E) 00:10:41 145.865
ESTCUBE 1 02 Jul 00:07:41 00:12:14 86° 74° (ENE) 00:16:47 437.505/2401.250
QB50P1 02 Jul 00:09:12 00:12:44 25° 97° (E) 00:16:15 145.935-145.965
POPSAT HIP 1 02 Jul 00:12:41 00:16:20 27° 98° (E) 00:19:58 437.405
DUCHIFAT 1 02 Jul 00:22:29 00:26:19 32° 98° (E) 00:30:07 145.980
QB50P2 02 Jul 00:25:37 00:29:42 43° 99° (E) 00:33:47 145.880/145.840
50 SAT 02 Jul 00:28:02 00:31:43 75° 259° (WSW) 00:35:27 437.505
POLYITAN 1 02 Jul 00:28:14 00:32:21 45° 100° (E) 00:36:27 437.675
TIGRISAT 02 Jul 00:33:04 00:36:49 24° 289° (WNW) 00:40:34 435.000
CUBEBUG 1 02 Jul 00:33:40 00:38:00 70° 259° (WSW) 00:42:20 437.445
Cosmos 2504 02 Jul 00:33:49 00:40:26 23° 73° (ENE) 00:46:44 435.465 / 435.565
PCSat 02 Jul 00:36:30 00:40:05 18° 105° (ESE) 00:43:40 145.827
UNISAT 6 02 Jul 00:39:52 00:43:11 19° 290° (WNW) 00:46:30 437.425
SO-50 02 Jul 00:44:37 00:49:03 46° 60° (ENE) 00:53:20 436.795
VELOX 1 02 Jul 00:51:49 00:56:03 45° 260° (W) 01:00:17 145.980
Cosmos 2491 02 Jul 00:52:16 01:00:58 71° 93° (E) 01:09:38 435.465 / 435.565
BUGSAT 1 02 Jul 01:02:36 01:06:32 42° 99° (E) 01:10:30 437.445
SPROUT 02 Jul 01:06:41 01:10:54 78° 257° (WSW) 01:15:10 437.525
BEESAT 2 02 Jul 01:10:28 01:11:29 11° 108° (ESE) 01:12:29 435.950
UKube-1 02 Jul 01:12:41 01:16:45 41° 260° (W) 01:20:50 .
AISAT 02 Jul 01:35:28 01:37:36 13° 265° (W) 01:39:45 437.250
NANOSAT C BR1 02 Jul 01:39:42 01:43:06 24° 288° (WNW) 01:46:30 145.865
DX 1 02 Jul 01:41:30 01:44:03 15° 265° (W) 01:46:35 434.975-435.025
QB50P1 02 Jul 01:45:14 01:48:18 20° 289° (WNW) 01:51:22 145.935-145.965
YUBILEINY 02 Jul 01:46:30 01:54:08 34° 273° (W) 02:01:48 435.215
ITUPSAT 1 02 Jul 01:47:25 01:48:34 11° 66° (ENE) 01:49:43 437.325
JAS-2 02 Jul 01:47:35 01:52:52 63° 101° (E) 01:57:58 435.910
POPSAT HIP 1 02 Jul 01:48:57 01:51:52 18° 289° (WNW) 01:54:47 437.405
DUCHIFAT 1 02 Jul 01:59:13 02:01:40 15° 291° (WNW) 02:04:09 145.980
BEESAT 3 02 Jul 01:59:25 02:03:17 76° 296° (WNW) 02:07:13 437.485
QB50P2 02 Jul 02:03:36 02:05:04 12° 292° (WNW) 02:06:32 145.880/145.840
POLYITAN 1 02 Jul 02:06:20 02:07:42 11° 292° (WNW) 02:09:03 437.675
TISAT 1 02 Jul 02:13:10 02:17:12 51° 260° (W) 02:21:15 437.305
PCSat 02 Jul 02:17:56 02:23:04 43° 298° (WNW) 02:28:14 145.827
Cosmos 2504 02 Jul 02:25:42 02:34:16 60° 269° (W) 02:42:19 435.465 / 435.565
SO-50 02 Jul 02:27:07 02:29:01 12° 253° (WSW) 02:30:53 436.795
O/OREOS (USA 219) 02 Jul 02:28:06 02:32:35 89° 273° (W) 02:37:06 437.305
Oscar 19 02 Jul 02:33:07 02:38:10 61° 101° (E) 02:43:14 437.125/150
BUGSAT 1 02 Jul 02:40:13 02:41:30 11° 291° (WNW) 02:42:47 437.445
BEESAT 2 02 Jul 02:45:10 02:48:53 40° 300° (WNW) 02:52:38 435.950
SWISSCUBE 02 Jul 02:52:33 02:57:19 73° 76° (ENE) 03:02:07 437.505
Cosmos 2491 02 Jul 02:52:40 02:58:24 19° 288° (WNW) 03:04:09 435.465 / 435.565
ITAMSAT 1 02 Jul 03:05:54 03:08:52 15° 95° (E) 03:11:49 435.822/435.867
BEESAT 02 Jul 03:17:26 03:22:10 65° 258° (WSW) 03:26:55 436.000
Gurwin Techsat 1B 02 Jul 03:20:45 03:26:05 76° 102° (ESE) 03:31:23 435.225
ITUPSAT 1 02 Jul 03:21:05 03:25:49 60° 259° (W) 03:30:34 437.325
MOZHAYETS 4 02 Jul 03:25:13 03:27:03 12° 68° (ENE) 03:28:54
JAS-2 02 Jul 03:35:57 03:37:17 11° 297° (WNW) 03:38:36 435.910
PHONESAT 2.4 02 Jul 03:55:34 03:57:53 20° 142° (SE) 04:00:12 2401.200-2431.200
AIST 2 02 Jul 03:59:22 04:03:20 50° 113° (ESE) 04:07:19 435.215
Oscar 19 02 Jul 04:15:01 04:16:55 12° 294° (WNW) 04:18:49 437.125/150
AO-7 02 Jul 04:29:15 04:37:10 45° 102° (ESE) 04:44:59 29.400- 29.500
KKS-1 02 Jul 04:40:24 04:44:48 72° 258° (WSW) 04:49:13 437.445
ITAMSAT 1 02 Jul 04:43:29 04:48:28 47° 287° (WNW) 04:53:26 435.822/435.867
MOZHAYETS 4 02 Jul 04:59:16 05:03:43 49° 260° (W) 05:08:13
Cosmos 2499 02 Jul 05:00:13 05:04:32 15° 68° (ENE) 05:08:42 435.465 / 435.565
STARS 02 Jul 05:01:46 05:06:07 86° 260° (W) 05:10:29 437.465
CUBESAT XI-V 02 Jul 05:02:20 05:05:12 16° 69° (ENE) 05:08:04 437.345
AIST 1 02 Jul 05:02:56 05:07:02 48° 267° (W) 05:11:08
Gurwin Techsat 1B 02 Jul 05:05:00 05:05:19 10° 296° (WNW) 05:05:38 435.225
PHONESAT 2.4 02 Jul 05:31:24 05:34:19 42° 334° (NNW) 05:37:15 2401.200-2431.200
AIST 2 02 Jul 05:40:44 05:42:04 11° 308° (NW) 05:43:23 435.215
GONETS M04 02 Jul 05:47:35 05:56:08 56° 81° (E) 06:04:40
HORYU 2 02 Jul 06:02:34 06:07:02 64° 101° (ESE) 06:11:29 437.375
AO-85 02 Jul 06:16:31 06:20:31 36° 58° (ENE) 06:24:15 145.980
AO-7 02 Jul 06:22:22 06:29:36 34° 296° (WNW) 06:36:48 29.400- 29.500
BRITE-PL 02 Jul 06:22:53 06:25:17 15° 96° (E) 06:27:43 437.365/2234.400
NOAA 15 02 Jul 06:28:57 06:32:52 21° 96° (E) 06:36:46 137.62
CUBESAT XI-V 02 Jul 06:37:53 06:42:14 37° 262° (W) 06:46:35 437.345
LilacSat-2 02 Jul 06:45:24 06:48:01 17° 96° (E) 06:50:38 437.200
Cosmos 2499 02 Jul 06:50:04 06:58:42 85° 265° (W) 07:06:38 435.465 / 435.565
CUSAT 1 02 Jul 07:01:04 07:08:25 45° 94° (E) 07:14:43 437.405
PHONESAT 2.4 02 Jul 07:09:49 07:11:25 13° 350° (N) 07:13:03 2401.200-2431.200
ISS 02 Jul 07:11:13 07:14:27 81° 313° (NW) 07:17:43 145.825
DOVE 4 02 Jul 07:16:32 07:18:17 12° 95° (E) 07:20:04 437.250
Cubesat XI-IV 02 Jul 07:19:40 07:24:55 52° 101° (E) 07:30:07 437.490
GONETS M04 02 Jul 07:45:43 07:52:16 24° 276° (W) 07:58:52
NOAA 18 02 Jul 07:46:54 07:52:28 79° 285° (WNW) 07:57:59 137.9125
CUTE-I 02 Jul 07:52:38 07:57:59 72° 285° (WNW) 08:03:18 437.470
STRAND 1 02 Jul 07:58:07 08:03:15 88° 79° (E) 08:08:26 437.568
AO-85 02 Jul 07:58:37 08:00:28 13° 254° (WSW) 08:02:16 145.980
DANDE 02 Jul 07:59:49 08:08:08 66° 94° (E) 08:15:53 436.750
BRITE-PL 02 Jul 08:00:07 08:03:46 30° 286° (WNW) 08:07:33 437.365/2234.400
NOAA 15 02 Jul 08:07:56 08:12:37 34° 289° (WNW) 08:17:18 137.62
GOMX 1 02 Jul 08:12:11 08:16:26 56° 284° (WNW) 08:20:56 467.674
LilacSat-2 02 Jul 08:19:09 08:22:13 22° 287° (WNW) 08:25:16 437.200
CUSAT 1 02 Jul 08:44:00 08:50:23 28° 282° (WNW) 08:56:00 437.405
PHONESAT 2.4 02 Jul 08:47:33 08:48:53 12° 7° (N) 08:50:14 2401.200-2431.200
Cosmos 2499 02 Jul 08:48:15 08:50:16 11° 282° (WNW) 08:52:17 435.465 / 435.565
COMPASS 1 02 Jul 08:48:48 08:50:55 14° 94° (E) 08:53:02 437.405
CUBEBUG 2 02 Jul 08:50:03 08:50:47 10° 93° (E) 08:51:32 437.445
DOVE 4 02 Jul 08:51:43 08:56:02 46° 284° (WNW) 09:00:36 437.250
Cubesat XI-IV 02 Jul 09:01:26 09:04:29 15° 294° (WNW) 09:07:31 437.490
CANX-2 02 Jul 09:01:27 09:05:38 54° 100° (E) 09:09:46 2200.000
HO-68 02 Jul 09:10:11 09:17:19 62° 103° (ESE) 09:24:23 435.675
CINEMA 3 02 Jul 09:16:59 09:21:42 88° 95° (E) 09:26:37 145.822/145.860
SEEDS 02 Jul 09:17:01 09:21:07 49° 100° (E) 09:25:10 437.485
CUTE 1.7 + AOD 2 02 Jul 09:20:33 09:24:49 84° 100° (E) 09:29:03 437.475
UWE-3 02 Jul 09:26:12 09:29:35 20° 95° (E) 09:32:58 435.000/436.395/437.385
PRISM 02 Jul 09:26:27 09:30:34 65° 259° (WSW) 09:34:41 437.425
M-CUBED/EXP-1 PRIME 02 Jul 09:39:52 09:42:56 19° 102° (ESE) 09:46:06 437.505
AAUSAT CUBESAT 2 02 Jul 09:44:09 09:48:14 57° 100° (E) 09:52:17 437.432
DANDE 02 Jul 09:44:58 09:51:11 23° 286° (WNW) 09:57:05 436.750
UNISAT 6 02 Jul 09:57:31 09:59:27 13° 68° (ENE) 10:01:24 437.425
COMPASS 1 02 Jul 10:22:46 10:26:31 32° 286° (WNW) 10:30:13 437.405
CUBEBUG 2 02 Jul 10:22:59 10:27:35 56° 284° (WNW) 10:32:14 437.445
PHONESAT 2.4 02 Jul 10:23:19 10:26:06 30° 23° (NNE) 10:28:52 2401.200-2431.200
RS-15 02 Jul 10:27:01 10:36:47 36° 105° (ESE) 10:46:57 29.354- 29.394
AUBIESAT-1 02 Jul 10:30:13 10:34:23 68° 106° (ESE) 10:38:49 437.475
ZACube-1 02 Jul 10:30:49 10:35:25 75° 101° (E) 10:39:59 437.345
Oscar 11 02 Jul 10:32:37 10:36:59 84° 101° (E) 10:41:18 145.826/435.025
ANTELSAT 02 Jul 10:34:52 10:38:49 37° 73° (ENE) 10:42:52 437.575/2403.000
FUNcube-1 02 Jul 10:46:02 10:50:37 77° 283° (WNW) 10:55:11 145.935
DELFI C3 02 Jul 10:55:50 10:59:46 67° 100° (E) 11:03:41 145.870
HO-68 02 Jul 10:59:24 11:04:22 21° 297° (WNW) 11:09:22 435.675
UWE-3 02 Jul 11:01:56 11:05:58 30° 287° (WNW) 11:10:01 435.000/436.395/437.385
HUMSAT D 02 Jul 11:07:24 11:11:25 38° 99° (E) 11:15:24 437.325/437.525
BEESAT 2 02 Jul 11:09:26 11:12:08 17° 55° (NE) 11:14:50 435.950
DUCHIFAT 1 02 Jul 11:11:01 11:12:12 11° 68° (ENE) 11:13:24 145.980
Cosmos 2491 02 Jul 11:11:19 11:18:13 25° 74° (ENE) 11:25:04 435.465 / 435.565
PCSat 02 Jul 11:11:41 11:16:49 41° 62° (ENE) 11:21:52 145.827
QB50P2 02 Jul 11:13:46 11:16:13 15° 70° (ENE) 11:18:40 145.880/145.840
M-CUBED/EXP-1 PRIME 02 Jul 11:13:47 11:17:20 28° 291° (WNW) 11:21:04 437.505
POLYITAN 1 02 Jul 11:16:20 11:18:51 16° 70° (ENE) 11:21:21 437.675
TIGRISAT 02 Jul 11:24:56 11:29:06 52° 260° (W) 11:33:23 435.000
UNISAT 6 02 Jul 11:31:42 11:35:44 40° 261° (W) 11:39:52 437.425
BUGSAT 1 02 Jul 11:48:27 11:50:17 13° 69° (ENE) 11:52:07 437.445
JAS-2 02 Jul 11:53:51 11:58:34 18° 66° (ENE) 12:03:03 435.910
AISAT 02 Jul 11:55:13 11:56:44 12° 94° (E) 11:58:15 437.250
BEESAT 3 02 Jul 11:59:41 12:03:32 53° 246° (WSW) 12:07:21 437.485
PHONESAT 2.4 02 Jul 11:59:56 12:02:40 29° 216° (SW) 12:05:23 2401.200-2431.200
50 SAT 02 Jul 12:04:27 12:06:22 14° 95° (E) 12:08:15 437.505
ESTCUBE 1 02 Jul 12:06:41 12:10:34 28° 98° (E) 12:14:25 437.505/2401.250
ANTELSAT 02 Jul 12:13:35 12:15:38 13° 266° (W) 12:17:42 437.575/2403.000
NANOSAT C BR1 02 Jul 12:24:50 12:28:59 71° 259° (W) 12:33:10 145.865
CUBEBUG 1 02 Jul 12:28:26 12:32:20 33° 98° (E) 12:36:14 437.445
QB50P1 02 Jul 12:30:26 12:34:32 56° 259° (W) 12:38:40 145.935-145.965
POPSAT HIP 1 02 Jul 12:34:08 12:38:11 51° 260° (W) 12:42:16 437.405
RS-15 02 Jul 12:37:38 12:48:35 54° 303° (WNW) 13:00:13 29.354- 29.394
YUBILEINY 02 Jul 12:42:16 12:50:42 57° 91° (E) 12:59:12 435.215
DUCHIFAT 1 02 Jul 12:43:31 12:47:27 42° 261° (W) 12:51:25 145.980
O/OREOS (USA 219) 02 Jul 12:44:04 12:48:31 63° 71° (ENE) 12:52:59 437.305
HUMSAT D 02 Jul 12:44:35 12:46:38 13° 291° (WNW) 12:48:42 437.325/437.525
BEESAT 2 02 Jul 12:46:32 12:49:57 28° 249° (WSW) 12:53:21 435.950
VELOX 1 02 Jul 12:47:40 12:51:58 52° 100° (E) 12:56:15 145.980
QB50P2 02 Jul 12:47:59 12:51:42 31° 262° (W) 12:55:27 145.880/145.840
POLYITAN 1 02 Jul 12:50:40 12:54:20 30° 262° (W) 12:58:03 437.675
PCSat 02 Jul 12:56:04 12:59:49 19° 255° (WSW) 13:03:34 145.827
SPROUT 02 Jul 12:58:58 13:02:39 28° 97° (E) 13:06:21 437.525
JUGNU 02 Jul 13:04:47 13:09:02 20° 166° (SSE) 13:13:17 437.505
Cosmos 2504 02 Jul 13:04:59 13:10:40 21° 82° (E) 13:16:34 435.465 / 435.565
UKube-1 02 Jul 13:05:29 13:09:40 49° 100° (E) 13:13:50 .
